User: anonymous   Login
Location: Plum
(40.5000°N, 79.7500°W)
Time: 22:57:29
(UTC-04:00)
Language:

MOZ.5/SAFIR/RUBIN 5/SL-8 - Orbit

View from above orbital plane
View from above orbital plane
View from above satellite
View from above satellite

Ground track
Ground track

The orbit data is extracted from the following two-line orbital elements,

1 28898U 05043G   14298.09385345  .00000958  00000-0  21014-3 0  9610
2 28898 097.8358 120.4997 0019527 350.8789 154.8296 14.59589247478876
Epoch (UTC): 25 October 2014 02:15:08
Eccentricity: 0.0019527
inclination: 97.8358°
perigee height: 680 km
apogee height: 708 km
right ascension of ascending node: 120.4997°
argument of perigee: 350.8789°
revolutions per day: 14.59589247
mean anomaly at epoch: 154.8296°
orbit number at epoch: 47887

The dashed part of the orbit path shows where the satellite is in the earth's shadow,  

DLR